Central Park, NY

5:06 AM EDT on October 21, 2017 (GMT -0400)
Central Park

Weather History for KNYC - March, 2014

Change the Weather History Date:

Wednesday, March 12, 2014

  Actual Average Record
Temperature  
Mean Temperature 44 °F 41 °F  
Max Temperature 56 °F 48 °F 71 °F (1890)
Min Temperature 32 °F 34 °F 8 °F (1888)
Degree Days  
Heating Degree Days 21 24  
Month to date heating degree days 350 306  
Since 1 July heating degree days 4020 3828  
Cooling Degree Days 0 0  
Month to date cooling degree days 0 0  
Year to date cooling degree days 0 0  
Moisture  
Dew Point 42 °F    
Average Humidity 68    
Maximum Humidity 89    
Minimum Humidity 47    
Precipitation  
Precipitation 0.35 in 0.13 in 2.33 in (1962)
Month to date precipitation 0.39 1.55  
Year to date precipitation 8.66 8.29  
Snow  
Snow 0.00 in 0.10 in 16.50 in (1888)
Month to date snowfall 0.1 2.2  
Since 1 July snowfall 57.4 23.5  
Snow Depth 0.00 in    
Sea Level Pressure  
Sea Level Pressure 29.24 in    
Wind  
Wind Speed 5 mph (ENE)    
Max Wind Speed 20 mph    
Max Gust Speed 35 mph    
Visibility 6 miles    
Events Rain    
T = Trace of Precipitation, MM = Missing Value Source: NWS Daily Summary

Daily Weather History Graph

Daily Weather History Graph

Search for Another Location

Airport or City:

Trip Planner

Search our weather history database for the weather conditions in past years. The results will help you decide how hot, cold, wet, or windy it might be!

Date:

Astronomy

Mar. 12, 2014 Rise Set
Actual Time 7:12 AM EDT 6:59 PM EDT
Civil Twilight 6:45 AM EDT 7:26 PM EDT
Nautical Twilight 6:13 AM EDT 7:58 PM EDT
Astronomical Twilight 5:41 AM EDT 8:30 PM EDT
Moon 3:26 PM EDT (3/12) 4:43 AM EDT (3/12)
Length of Visible Light 12h 41m
Length of Day
11h 46m
Waxing Gibbous, 85% of the Moon is Illuminated
Mar 12
Waxing Gibbous
Mar 16
Full
Mar 23
Last Quarter
Mar 30
New
Apr 7
First Quarter

Hourly Weather History & Observations

Time (EDT) Temp. Windchill Dew Point Humidity Pressure Visibility Wind Dir Wind Speed Gust Speed Precip Events Conditions
12:51 AM 55.0 °F - 35.1 °F 47% 29.67 in 10.0 mi Variable 3.5 mph - N/A   Clear
1:51 AM 54.0 °F - 35.1 °F 49% 29.67 in 10.0 mi NE 3.5 mph - N/A   Mostly Cloudy
2:51 AM 52.0 °F - 35.1 °F 53% 29.65 in 10.0 mi NE 3.5 mph - N/A   Mostly Cloudy
3:51 AM 51.1 °F - 33.1 °F 50% 29.63 in 10.0 mi Calm Calm - N/A   Overcast
4:51 AM 48.9 °F - 33.1 °F 54% 29.59 in 10.0 mi East 3.5 mph - N/A   Clear
5:51 AM 46.9 °F - 33.1 °F 59% 29.59 in 10.0 mi ENE 5.8 mph - N/A   Clear
6:51 AM 45.0 °F 40.6 °F 33.1 °F 63% 29.57 in 10.0 mi ENE 8.1 mph - N/A   Clear
7:51 AM 46.0 °F 43.9 °F 34.0 °F 63% 29.56 in 8.0 mi Variable 4.6 mph - N/A   Clear
8:51 AM 46.9 °F - 35.1 °F 63% 29.53 in 7.0 mi East 4.6 mph - N/A   Clear
9:51 AM 48.9 °F - 37.0 °F 64% 29.49 in 7.0 mi ENE 5.8 mph - N/A   Clear
10:51 AM 52.0 °F - 39.0 °F 61% 29.43 in 7.0 mi Variable 6.9 mph - N/A   Clear
11:51 AM 55.0 °F - 43.0 °F 64% 29.36 in 8.0 mi SE 4.6 mph - N/A   Scattered Clouds
12:51 PM 53.1 °F - 42.1 °F 66% 29.30 in 8.0 mi Calm Calm - N/A   Overcast
1:51 PM 52.0 °F - 42.1 °F 69% 29.24 in 7.0 mi Variable 6.9 mph - N/A   Overcast
2:51 PM 53.1 °F - 42.1 °F 66% 29.19 in 7.0 mi South 8.1 mph 19.6 mph N/A   Overcast
3:51 PM 55.9 °F - 42.1 °F 60% 29.14 in 7.0 mi South 3.5 mph - N/A   Overcast
4:51 PM 53.1 °F - 45.0 °F 74% 29.11 in 5.0 mi Calm Calm - 0.01 in Rain Light Rain
5:27 PM 52.0 °F - 46.9 °F 83% 29.11 in 2.0 mi Variable 4.6 mph - 0.01 in Rain Light Rain
5:30 PM 51.1 °F - 46.9 °F 86% 29.10 in 1.5 mi Variable 3.5 mph - 0.01 in Rain Rain
5:51 PM 52.0 °F - 48.9 °F 89% 29.07 in 1.5 mi SSE 4.6 mph - 0.07 in Rain Light Rain
6:00 PM 53.1 °F - 48.9 °F 86% 29.08 in 2.5 mi SSE 4.6 mph - 0.00 in Rain Light Rain
6:05 PM 53.1 °F - 48.9 °F 86% 29.08 in 1.5 mi South 4.6 mph - 0.01 in Rain Rain
6:21 PM 53.1 °F - 50.0 °F 89% 29.07 in 3.0 mi SSE 6.9 mph - 0.04 in Rain Light Rain
6:51 PM 53.1 °F - 50.0 °F 89% 29.04 in 4.0 mi South 5.8 mph - 0.08 in Rain Light Rain
7:51 PM 53.1 °F - 50.0 °F 89% 29.03 in 4.0 mi Variable 5.8 mph - 0.00 in   Overcast
8:02 PM 53.1 °F - 50.0 °F 89% 29.07 in 2.0 mi NW 6.9 mph - 0.01 in Rain Rain
8:09 PM 52.0 °F - 48.9 °F 89% 29.07 in 1.5 mi Variable 4.6 mph - 0.05 in Rain Heavy Rain
8:17 PM 51.1 °F - 48.9 °F 92% 29.07 in 3.0 mi Calm Calm - 0.07 in Rain Light Rain
8:26 PM 52.0 °F - 48.0 °F 86% 29.06 in 4.0 mi Calm Calm - 0.07 in Rain Light Rain
8:51 PM 51.1 °F - 48.0 °F 89% 29.03 in 3.0 mi Calm Calm - 0.07 in Rain Light Rain
9:40 PM 52.0 °F - 48.9 °F 89% 29.05 in 2.5 mi WNW 4.6 mph - 0.05 in Rain Light Rain
9:51 PM 52.0 °F - 48.9 °F 89% 29.03 in 2.0 mi Variable 5.8 mph - 0.08 in Rain Rain
9:55 PM 51.1 °F - 48.0 °F 89% 29.06 in 2.5 mi WNW 6.9 mph - 0.01 in Rain Light Rain
10:02 PM 50.0 °F - 46.9 °F 89% 29.06 in 3.0 mi NNW 8.1 mph - 0.01 in Rain Light Rain
10:11 PM 48.0 °F - 45.0 °F 89% 29.05 in 2.5 mi NNE 8.1 mph - 0.04 in Rain Rain
10:22 PM 48.0 °F - 44.1 °F 86% 29.09 in 5.0 mi WNW 11.5 mph 18.4 mph 0.04 in   Overcast
10:48 PM 44.6 °F 39.7 °F 37.4 °F 76% 29.12 in 10.0 mi WNW 9.2 mph 23.0 mph 0.04 in   Overcast
11:34 PM 37.0 °F 30.4 °F 30.0 °F 76% 29.15 in 10.0 mi NW 9.2 mph 21.9 mph N/A   Overcast
11:51 PM 37.0 °F 28.9 °F 28.9 °F 73% 29.16 in 10.0 mi NW 12.7 mph 21.9 mph N/A   Overcast